Waarnemingen

Advertentie
Mijn weer
Umeå Flygplats, Zweden (2286): temperatuur & dauwpunt: 20.05.2019 15:00:00 - 26.05.2019 15:00:00 (CEST)Umeå Flygplats, Zweden (2286): windsnelheid: 20.05.2019 15:00:00 - 26.05.2019 15:00:00 (CEST)Umeå Flygplats, Zweden (2286): windrichting: 20.05.2019 15:00:00 - 26.05.2019 15:00:00 (CEST)Umeå Flygplats, Zweden (2286): luchtdruk: 20.05.2019 15:00:00 - 26.05.2019 15:00:00 (CEST)Umeå Flygplats, Zweden (2286): zicht: 20.05.2019 15:00:00 - 26.05.2019 15:00:00 (CEST)
Datum & Tijd tt [°C] td [°C] ff [km/u] ff [kn] dd ppp [hPa] vv [km]
26.05.2019 15:00:00 12,0 4,0 16 9 OZO - 10
26.05.2019 14:00:00 11,4 3,4 16 9 OZO 996,8 10
26.05.2019 13:00:00 11,9 4,1 18 10 OZO 996,9 10
26.05.2019 12:00:00 11,7 4,9 15 8 ZZO 997,2 10
26.05.2019 11:00:00 11,5 4,7 11 6 ZZO 997,5 10
26.05.2019 10:00:00 11,0 5,7 9 5 ZO 997,8 10
26.05.2019 09:00:00 10,5 4,2 2 1 - 998,1 10
26.05.2019 08:00:00 9,5 4,9 0 0 N 998,6 10
26.05.2019 07:00:00 7,6 7,2 0 0 N 998,9 10
26.05.2019 06:00:00 5,7 5,7 4 2 - 999,3 0,4
26.05.2019 05:00:00 4,0 4,0 5 3 WNW 999,8 0,1
26.05.2019 04:00:00 4,4 4,4 8 4 NW 999,9 0,2
26.05.2019 03:00:00 4,9 4,9 2 1 - 1000,2 0,5
26.05.2019 02:00:00 5,5 5,5 8 4 NW 1000,7 3,0
26.05.2019 01:00:00 5,8 5,5 4 2 ZW 1001,2 5
26.05.2019 00:00:00 6,6 5,5 5 3 Z 1001,6 10
25.05.2019 23:00:00 6,8 5,6 9 5 Z 1002,0 10
25.05.2019 22:00:00 6,9 5,5 9 5 ZZO 1002,1 10
25.05.2019 21:00:00 7,0 5,0 13 7 Z 1002,4 10
25.05.2019 20:00:00 7,6 5,1 13 7 ZO 1002,7 10
25.05.2019 19:00:00 8,8 5,7 9 5 ZZO 1002,8 10
25.05.2019 18:00:00 9,8 5,6 8 4 ZO 1003,0 10
25.05.2019 17:00:00 8,5 5,2 11 6 OZO 1003,5 10
25.05.2019 16:00:00 9,7 4,5 8 4 N 1003,5 10
25.05.2019 15:00:00 9,8 4,4 11 6 N 1003,6 10
25.05.2019 14:00:00 9,3 4,5 11 6 N 1003,9 10
25.05.2019 13:00:00 9,5 5,3 13 7 N 1004,1 10
25.05.2019 12:00:00 8,6 4,6 11 6 N 1004,2 10
25.05.2019 11:00:00 8,4 5,0 15 8 N 1004,3 10
25.05.2019 10:00:00 8,0 4,6 13 7 N 1004,3 10
25.05.2019 09:00:00 7,6 4,7 15 8 N 1004,5 10
25.05.2019 08:00:00 7,1 4,7 11 6 N 1004,8 10
25.05.2019 07:00:00 6,5 4,3 11 6 N 1005,1 10
25.05.2019 06:00:00 6,1 3,9 11 6 N 1005,3 10
25.05.2019 05:00:00 5,9 3,7 11 6 N 1005,7 10
25.05.2019 04:00:00 5,8 4,0 9 5 N 1006,0 10
25.05.2019 03:00:00 6,0 4,3 5 3 NNO 1006,2 10
25.05.2019 02:00:00 6,1 4,6 5 3 NNO 1006,8 10
25.05.2019 01:00:00 6,5 4,8 8 4 N 1006,8 10
25.05.2019 00:00:00 6,8 5,0 5 3 NO 1007,1 10
24.05.2019 23:00:00 7,2 5,7 8 4 N 1007,3 10
24.05.2019 22:00:00 7,4 5,9 5 3 - 1007,5 10
24.05.2019 21:00:00 7,8 5,8 5 3 NO 1007,6 10
24.05.2019 20:00:00 8,1 6,1 8 4 NNO 1008,0 10
24.05.2019 19:00:00 9,0 5,7 4 2 - 1007,9 10
24.05.2019 18:00:00 9,1 6,0 8 4 NW 1007,8 10
24.05.2019 17:00:00 8,7 5,8 4 2 - 1008,2 10
24.05.2019 16:00:00 8,5 5,8 5 3 NW 1008,2 10
24.05.2019 15:00:00 8,1 5,9 9 5 NNW 1008,2 10
24.05.2019 14:00:00 7,8 5,9 9 5 NNW 1008,2 10
24.05.2019 13:00:00 7,3 5,9 11 6 NNW 1008,1 10
24.05.2019 12:00:00 6,7 5,6 9 5 N 1008,2 10
24.05.2019 11:00:00 6,4 5,7 15 8 N 1008,1 10
24.05.2019 10:00:00 6,3 5,9 13 7 NNO 1008,1 6
24.05.2019 09:00:00 6,1 5,8 13 7 NNO 1008,3 2,8
24.05.2019 08:00:00 5,9 5,5 16 9 NO 1008,4 5
24.05.2019 07:00:00 5,8 5,4 18 10 NO 1008,5 2,8
24.05.2019 06:00:00 5,9 5,5 21 11 NO 1008,8 3,0
24.05.2019 05:00:00 5,9 5,5 16 9 ONO 1009,4 10
24.05.2019 04:00:00 6,0 5,6 18 10 ONO 1009,8 10
24.05.2019 03:00:00 6,0 5,4 15 8 ONO 1010,5 10
24.05.2019 02:00:00 5,8 5,4 11 6 NO 1011,3 10
24.05.2019 01:00:00 5,3 4,7 13 7 NNO 1011,8 10
24.05.2019 00:00:00 5,1 3,9 11 6 NNO 1012,2 10
23.05.2019 23:00:00 4,7 3,4 13 7 NNO 1012,8 10
23.05.2019 22:00:00 4,7 3,2 13 7 NNO 1013,2 10
23.05.2019 21:00:00 5,0 3,5 11 6 NNO 1013,5 10
23.05.2019 20:00:00 5,2 3,5 11 6 NO 1013,9 10
23.05.2019 19:00:00 5,1 3,4 13 7 NO 1014,2 10
23.05.2019 18:00:00 5,2 3,1 13 7 NO 1014,6 10
23.05.2019 17:00:00 5,5 2,8 13 7 NO 1015,0 10
23.05.2019 16:00:00 5,7 3,0 16 9 NO 1015,5 10
23.05.2019 15:00:00 6,2 1,9 13 7 NO 1015,7 10
23.05.2019 14:00:00 6,6 2,5 15 8 NO 1015,8 10
23.05.2019 13:00:00 6,0 2,6 16 9 NO 1016,0 10
23.05.2019 12:00:00 5,5 2,8 16 9 NO 1016,3 10
23.05.2019 11:00:00 5,0 3,2 13 7 NNO 1016,3 10
23.05.2019 10:00:00 4,8 3,1 16 9 NNO 1016,2 10
23.05.2019 09:00:00 4,8 2,8 16 9 NNO 1016,1 10
23.05.2019 08:00:00 4,4 2,3 16 9 NO 1016,2 10
23.05.2019 07:00:00 4,4 2,1 15 8 NO 1016,4 10
23.05.2019 06:00:00 4,6 2,1 16 9 NNO 1016,2 10
23.05.2019 05:00:00 5,2 2,7 15 8 NNO 1015,9 10
23.05.2019 04:00:00 5,5 3,3 15 8 NNO 1016,0 10
23.05.2019 03:00:00 6,0 3,5 18 10 NNO 1016,1 10
23.05.2019 02:00:00 6,6 3,9 16 9 NNO 1016,0 10
23.05.2019 01:00:00 7,6 3,8 22 12 NNO 1015,8 10
23.05.2019 00:00:00 8,8 2,8 18 10 NNO 1015,4 10
22.05.2019 23:00:00 8,9 2,9 18 10 NNO 1015,3 10
22.05.2019 22:00:00 9,0 3,0 16 9 NNO 1015,2 10
22.05.2019 21:00:00 9,7 3,4 18 10 NO 1015,0 10
22.05.2019 20:00:00 10,5 4,4 24 13 NO 1014,5 10
22.05.2019 19:00:00 11,1 5,8 21 11 NO 1014,1 10
22.05.2019 18:00:00 12,2 6,5 22 12 ONO 1014,1 10
22.05.2019 17:00:00 14,3 7,6 21 11 ONO 1013,4 10
22.05.2019 16:00:00 16,4 8,4 21 11 NO 1013,4 10
22.05.2019 15:00:00 17,6 8,7 18 10 ONO 1013,5 10
22.05.2019 14:00:00 19,0 8,9 18 10 NNO 1013,2 10
22.05.2019 13:00:00 18,9 9,1 18 10 NNO 1013,2 10
22.05.2019 12:00:00 18,4 8,9 18 10 NNO 1013,4 10
22.05.2019 11:00:00 18,9 9,7 18 10 NO 1013,5 10
22.05.2019 10:00:00 17,9 9,0 18 10 N 1013,4 10
22.05.2019 09:00:00 17,2 8,9 15 8 N 1013,2 10
22.05.2019 08:00:00 16,6 9,3 16 9 N 1013,2 10
22.05.2019 07:00:00 14,9 9,9 16 9 N 1013,3 10
22.05.2019 06:00:00 13,4 10,0 13 7 NNW 1013,5 10
22.05.2019 05:00:00 11,2 9,5 9 5 NW 1013,7 10
22.05.2019 04:00:00 8,8 8,0 9 5 NW 1014,0 10
22.05.2019 03:00:00 7,8 6,9 5 3 NW 1014,1 10
22.05.2019 02:00:00 6,5 5,8 5 3 NW 1014,3 10
22.05.2019 01:00:00 9,2 8,9 4 2 WNW 1014,5 0,2
22.05.2019 00:00:00 9,1 8,6 0 0 N 1014,7 10
21.05.2019 23:00:00 11,2 8,4 2 1 ZO 1014,6 10
21.05.2019 22:00:00 13,5 9,9 5 3 NO 1014,6 10
21.05.2019 21:00:00 15,1 10,3 9 5 ONO 1014,7 10
21.05.2019 20:00:00 16,3 10,6 13 7 ONO 1014,4 10
21.05.2019 19:00:00 17,6 10,5 15 8 ONO 1014,3 10
21.05.2019 18:00:00 18,0 10,9 15 8 ONO 1014,3 10
21.05.2019 17:00:00 18,9 11,0 16 9 NO 1014,6 10
21.05.2019 16:00:00 18,7 11,0 16 9 O 1014,4 10
21.05.2019 15:00:00 19,0 11,3 16 9 O 1014,6 10
21.05.2019 14:00:00 19,4 11,2 15 8 O 1014,8 10
21.05.2019 13:00:00 19,9 11,9 15 8 OZO 1014,8 10
21.05.2019 12:00:00 19,4 11,7 13 7 O 1014,7 10
21.05.2019 11:00:00 19,4 10,9 9 5 NO 1014,7 10
21.05.2019 10:00:00 18,2 10,8 13 7 NO 1014,6 10
21.05.2019 09:00:00 17,1 10,7 13 7 ONO 1014,7 10
21.05.2019 08:00:00 15,2 10,6 11 6 NNO 1014,8 10
21.05.2019 07:00:00 13,5 10,3 8 4 N 1014,8 10
21.05.2019 06:00:00 12,7 9,5 9 5 N 1014,5 10
21.05.2019 05:00:00 11,5 9,6 8 4 NW 1014,3 10
21.05.2019 04:00:00 10,6 9,4 8 4 NW 1014,2 10
21.05.2019 03:00:00 11,5 9,6 4 2 - 1014,2 10
21.05.2019 02:00:00 11,9 10,0 5 3 NNO 1014,2 10
21.05.2019 01:00:00 12,6 10,3 4 2 N 1014,2 10
21.05.2019 00:00:00 13,0 11,1 5 3 O 1014,1 10
20.05.2019 23:00:00 13,1 10,8 0 0 N 1014,0 10
20.05.2019 22:00:00 14,4 11,5 4 2 ZO 1013,7 10
20.05.2019 21:00:00 15,0 11,4 8 4 ZZO 1013,5 10
20.05.2019 20:00:00 15,9 11,1 8 4 ZZO 1013,4 10
20.05.2019 19:00:00 16,9 11,2 11 6 ZZO 1013,5 10
20.05.2019 18:00:00 17,4 11,2 13 7 Z 1013,6 10
20.05.2019 17:00:00 19,2 11,2 18 10 ZZO 1013,5 10
20.05.2019 16:00:00 19,8 9,7 15 8 ZO 1013,7 10
20.05.2019 15:00:00 20,6 10,1 15 8 ZO 1014,0 10

tt = temperatuur
td = dauwpunt
ff = windsnelheid
dd = windrichting
ppp = luchtdruk
vv = zicht

Weerstations in de omgeving